Meteopurmerend
purmerend
Purmerend - Baaienwijk



My webcam  My webcam


waarschuwing voor Onweer Meer informatie blitzortung!


Regen radar Meer informatie rain snow radar


Bezoek onze andere website:

CandyAppleRed WebdesignWebdesign Purmerend Candy Apple Red

MeteopurmerendBlog

Template documentation
and downloads



Onweer van: 26-07-2021 13:00 tot: 21:00 waarschuwing voor: Onweer niveau: Geel info button
Enkele onweersbuien, lokaal met hagel en veel neerslag in korte tijd.Kans op blikseminslag, hagel en veel neerslag in korte tijd.Verkeer en buitenactiviteiten kunnen hinder ondervinden.Mijd open water en open gebied, schuil niet onder bomen.Volg weerberichten en waarschuwingen.

15 daagse weersverwachting Wolverhampton (GB)

  • Overzicht
  • Per uur
  • 15 dagen
  • Extra
  • Vergelijk
  • Kaarten
  • Dagkaart
  • Meer »
  • Info
  • Statistieken
  • Directe link
    Temp 6h Neerslag Wind  
 05:21     21:10    Daglengte: 15:49 Vandaag
19:00
23°
 
3
 05:23     21:08    Daglengte: 15:45 Morgen
01:00
18°
 
2
07:00
16°
 
2
13:00
20°
 
2
19:00
19°
 
3
 05:24     21:06    Daglengte: 15:42 Woensdag 28 Jul
01:00
15°
4.6 mm
4
07:00
14°
 
4
13:00
17°
8.2 mm
5
19:00
16°
21.4 mm
6
 05:26     21:05    Daglengte: 15:39 Donderdag 29 Jul
01:00
12°
 
5
07:00
12°
 
5
Locatie info
Region: England
Latitude: 52.5886°N
Longitude: -2.1217°E
160 masl
Postcode: WV1 1
Temp/Neerslag /Baro Onweer/Dauwpunt
    Temp Baro 1h Neerslag Dauwpunt Wind UV Bewolking  
 05:21     21:10    Daglengte: 15:49 Vandaag
14:00
23°
1009.0 hPa   11.4°
2
Windvlaag: 2.3 m/s
12%
15:00
24°
1008.5 hPa   11.7°
2
Windvlaag: 1.4 m/s
21%
16:00
24°
1008.1 hPa
11%
12.5°
2
Windvlaag: -0.9 m/s
39%
17:00
25°
1007.8 hPa
11%
12.8°
2
Windvlaag: -1.6 m/s
15%
18:00
25°
1007.6 hPa
23%
12.7°
2
Windvlaag: -1.4 m/s
16%
19:00
23°
1007.5 hPa
78%
13.0°
3
Windvlaag: -1.2 m/s
66%
20:00
23°
1007.6 hPa
68%
13.6°
3
Windvlaag: 3.5 m/s
42%
21:00
22°
1007.9 hPa
15%
14.4°
2
Windvlaag: 3.6 m/s
82%
22:00
20°
1008.2 hPa
16%
15.0°
2
Windvlaag: -2.1 m/s
76%
23:00
19°
1008.3 hPa
16%
15.3°
3
Windvlaag: -2.3 m/s
70%
 05:23     21:08    Daglengte: 15:45 Morgen
00:00
18°
1008.3 hPa
16%
15.3°
2
Windvlaag: -1.1 m/s
69%
01:00
18°
1008.2 hPa
13%
15.4°
2
Windvlaag: -1.2 m/s
76%
02:00
17°
1008.2 hPa
13%
15.6°
2
Windvlaag: -0.6 m/s
78%
03:00
17°
1008.0 hPa
13%
15.4°
2
Windvlaag: 0.5 m/s
79%
04:00
16°
1007.7 hPa
14%
14.5°
2
Windvlaag: 0.3 m/s
84%
05:00
16°
1007.3 hPa
15%
14.4°
1
Windvlaag: 1.2 m/s
78%
06:00
16°
1007.4 hPa
59%
14.7°
1
Windvlaag: 1.5 m/s
82%
07:00
16°
1007.4 hPa
22%
15.0°
2
Windvlaag: 2.6 m/s
84%
08:00
17°
1007.5 hPa
26%
14.8°
2
Windvlaag: 3.6 m/s
82%
09:00
17°
1007.5 hPa
70%
14.0°
2
Windvlaag: 4.3 m/s
79%
10:00
18°
1007.4 hPa
78%
12.9°
2
Windvlaag: 4.5 m/s
72%
11:00
19°
1007.3 hPa
82%
11.6°
2
Windvlaag: 4.9 m/s
61%
12:00
19°
1007.1 hPa
82%
10.9°
2
Windvlaag: 5.1 m/s
64%
13:00
20°
1006.7 hPa
77%
10.2°
2
Windvlaag: 5.2 m/s
61%
14:00
20°
1006.1 hPa
75%
10.0°
2
Windvlaag: 5.7 m/s
77%
15:00
20°
1005.8 hPa
68%
10.8°
3
Windvlaag: 5.6 m/s
77%
16:00
20°
1005.5 hPa
24%
13.0°
3
Windvlaag: 5.2 m/s
83%
17:00
20°
1005.4 hPa
28%
14.9°
2
Windvlaag: 4 m/s
56%
18:00
19°
1005.5 hPa
71%
15.0°
3
Windvlaag: 2.6 m/s
56%
19:00
19°
1005.2 hPa
79%
15.7°
3
Windvlaag: -0.7 m/s
50%
20:00
18°
1005.4 hPa
79%
15.2°
2
Windvlaag: -1 m/s
56%
21:00
17°
1005.5 hPa
77%
15.1°
2
Windvlaag: -1 m/s
57%
22:00
17°
1005.8 hPa 1.1 mm
72%
14.6°
2
Windvlaag: 1.2 m/s
74%
23:00
16°
1005.7 hPa 1.4 mm
82%
14.0°
3
Windvlaag: 1.5 m/s
76%
 05:24     21:06    Daglengte: 15:42 Woensdag 28 Jul
00:00
16°
1005.7 hPa 2.1 mm
82%
13.8°
4
Windvlaag: -1.7 m/s
74%
01:00
15°
1005.5 hPa
77%
13.7°
4
Windvlaag: -2.2 m/s
62%
02:00
15°
1005.2 hPa
23%
13.2°
4
Windvlaag: -2.3 m/s
22%
03:00
14°
1005.1 hPa
14%
12.5°
4
Windvlaag: -0.7 m/s
21%
04:00
14°
1005.1 hPa
14%
12.2°
4
Windvlaag: 1.6 m/s
21%
05:00
14°
1005.1 hPa
14%
11.9°
4
Windvlaag: 2.6 m/s
21%
06:00
13°
1005.4 hPa
18%
11.8°
4
Windvlaag: 2.4 m/s
19%
07:00
14°
1005.6 hPa
18%
11.7°
4
Windvlaag: 2.8 m/s
16%
08:00
14°
1005.9 hPa
14%
11.4°
5
Windvlaag: 4 m/s
13%
09:00
15°
1006.0 hPa
74%
10.8°
5
Windvlaag: 3.8 m/s
11%
10:00
16°
1004.9 hPa 1.4 mm
95%
11.6°
4
Windvlaag: 3.6 m/s
35%
11:00
17°
1004.6 hPa 1.8 mm
97%
11.2°
4
Windvlaag: 3.6 m/s
67%
12:00
17°
1004.3 hPa 2.9 mm
99%
10.4°
4
Windvlaag: 4 m/s
79%
13:00
17°
1004.1 hPa 2.1 mm
100%
10.4°
5
Windvlaag: 4.1 m/s
76%
14:00
17°
1003.9 hPa 3.0 mm
100%
10.7°
5
Windvlaag: 5.9 m/s
74%
15:00
17°
1003.8 hPa 3.6 mm
100%
9.1°
5
Windvlaag: 5.6 m/s
75% warningclass
16:00
17°
1003.5 hPa 3.1 mm
100%
9.8°
6
Windvlaag: 6.4 m/s
69%
17:00
16°
1003.3 hPa 3.2 mm
100%
11.2°
6
Windvlaag: 6.4 m/s
57% warningclass
18:00
17°
1003.2 hPa 3.3 mm
100%
8.3°
5
Windvlaag: 5 m/s
59%
19:00
16°
1003.2 hPa 5.2 mm
98%
6.5°
6
Windvlaag: 4.3 m/s
18%
20:00
15°
1003.5 hPa
37%
6.5°
6
Windvlaag: 4.2 m/s
58%
21:00
14°
1003.9 hPa
22%
7.8°
5
Windvlaag: 3.8 m/s
68%
22:00
14°
1004.1 hPa
21%
9.0°
4
Windvlaag: 3 m/s
10%
23:00
13°
1004.2 hPa
21%
8.4°
4
Windvlaag: 3.4 m/s
9%
 05:26     21:05    Daglengte: 15:39 Donderdag 29 Jul
00:00
12°
1004.3 hPa
21%
9.5°
5
Windvlaag: 4.9 m/s
13%
01:00
12°
1004.3 hPa
21%
8.1°
5
Windvlaag: 5 m/s
31%
02:00
12°
1004.3 hPa
21%
8.6°
5
Windvlaag: 4.6 m/s
61%
03:00
12°
1004.4 hPa
21%
9.3°
5
Windvlaag: 4.5 m/s
33%
04:00
12°
1004.6 hPa
21%
9.7°
5
Windvlaag: 4.8 m/s
14%
05:00
11°
1004.7 hPa
21%
10.0°
4
Windvlaag: 4.7 m/s
12%
06:00
11°
1005.1 hPa
21%
9.9°
5
Windvlaag: 5 m/s
16%
07:00
12°
1005.3 hPa
21%
9.9°
5
Windvlaag: 5.5 m/s
33%
08:00
13°
1007.0 hPa
21%
9.9°
5
Windvlaag: 14 m/s
54%
09:00
14°
1007.3 hPa
21%
11.0°
5
Windvlaag: 13.9 m/s
20%
10:00
16°
1007.5 hPa
21%
12.0°
6
Windvlaag: 13.3 m/s
20%
11:00
17°
1007.5 hPa
21%
11.1°
6
Windvlaag: 13.5 m/s
19%
12:00
18°
1007.5 hPa
21%
11.1°
6
Windvlaag: 13.6 m/s
20%
13:00
18°
1007.6 hPa
21%
13.8°
6
Windvlaag: 14.4 m/s
63%
Temp/Neerslag /Baro Onweer/Dauwpunt
    Temp Baro Neerslag Dauwpunt Wind Bewolking  
 05:21     21:10    Daglengte: 15:49 Vandaag
16:00
24°
1008.1 hPa   12.5°
2
39%
19:00
23°
1007.5 hPa   13.0°
3
66%
22:00
20°
1008.2 hPa   15.0°
2
76%
 05:23     21:08    Daglengte: 15:45 Morgen
01:00
18°
1008.2 hPa   15.4°
2
76%
04:00
16°
1007.7 hPa   14.5°
2
84%
07:00
16°
1007.4 hPa   15.0°
2
84%
10:00
18°
1007.4 hPa   12.9°
2
72%
13:00
20°
1006.7 hPa   10.2°
2
61%
16:00
20°
1005.5 hPa   13.0°
3
83%
19:00
19°
1005.2 hPa   15.7°
3
50%
22:00
17°
1005.8 hPa 1.1 mm 14.6°
2
74%
 05:24     21:06    Daglengte: 15:42 Woensdag 28 Jul
01:00
15°
1005.5 hPa 3.5 mm 13.7°
4
62%
04:00
14°
1005.1 hPa   12.2°
4
21%
07:00
14°
1005.6 hPa   11.7°
4
16%
10:00
16°
1004.9 hPa 1.4 mm 11.6°
4
35%
13:00
17°
1004.1 hPa 6.8 mm 10.4°
5
76%
16:00
17°
1003.5 hPa 9.7 mm 9.8°
6
69%
19:00
16°
1003.2 hPa 11.7 mm 6.5°
6
18%
22:00
14°
1004.1 hPa   9.0°
4
10%
 05:26     21:05    Daglengte: 15:39 Donderdag 29 Jul
01:00
12°
1004.3 hPa   8.1°
5
31%
04:00
12°
1004.6 hPa   9.7°
5
14%
07:00
12°
1005.3 hPa   9.9°
5
33%
10:00
16°
1007.5 hPa   12.0°
6
20%
13:00
18°
1007.6 hPa   13.8°
6
63%
16:00
17°
1008.7 hPa 9.5 mm 8.8°
8
1%
19:00
16°
1009.1 hPa 9.5 mm 9.4°
7
1%
22:00
14°
1009.6 hPa 9.5 mm 9.1°
4
1%
 05:28     21:03    Daglengte: 15:35 Vrijdag 30 Jul
01:00
11°
1009.9 hPa 9.5 mm 9.0°
3
1%
04:00
11°
1009.0 hPa 9.5 mm 8.6°
2
1%
07:00
12°
1008.7 hPa 9.5 mm 8.6°
1
1%
10:00
13°
1007.8 hPa 9.7 mm 8.6°
1
1%
13:00
16°
1005.7 hPa 10.0 mm 11.5°
4
1%
16:00
15°
1004.1 hPa 13.6 mm 13.3°
5
1%
19:00
15°
1002.4 hPa 15.6 mm 11.9°
4
1%
22:00
12°
1003.0 hPa 16.0 mm 10.0°
2
0%
 05:29     21:02    Daglengte: 15:33 Zaterdag 31 Jul
01:00
11°
1003.5 hPa 16.0 mm 9.5°
2
0%
04:00
12°
1003.6 hPa 16.1 mm 11.3°
4
0%
07:00
13°
1004.8 hPa 17.5 mm 12.6°
5
0%
10:00
16°
1005.9 hPa 18.3 mm 13.2°
7
1%
13:00
17°
1006.8 hPa 18.8 mm 11.3°
6
1%
16:00
17°
1007.6 hPa 18.9 mm 10.2°
6
1%
19:00
15°
1008.2 hPa 18.9 mm 8.9°
5
1%
22:00
11°
1009.5 hPa 18.9 mm 7.2°
3
0%
 05:31     21:00    Daglengte: 15:29 Zondag 01 Aug
01:00
10°
Voelt als: 7.7°
1009.7 hPa 18.9 mm 7.1°
4
1%
04:00
10°
Voelt als: 7.5°
1009.1 hPa 18.9 mm 7.0°
4
1%
07:00
12°
1009.4 hPa 18.9 mm 8.9°
6
1%
10:00
14°
1010.4 hPa 19.0 mm 9.0°
6
1%
13:00
15°
1011.3 hPa 19.6 mm 9.6°
5
1%
16:00
16°
1012.3 hPa 19.8 mm 7.8°
5
1%
19:00
15°
1013.2 hPa 19.9 mm 8.0°
4
1%
22:00
13°
1014.5 hPa 19.9 mm 7.2°
3
1%
 05:32     20:58    Daglengte: 15:26 Maandag 02 Aug
01:00
11°
1015.4 hPa 19.9 mm 7.2°
3
1%
04:00
Voelt als: 6.9°
1015.7 hPa 19.9 mm 5.7°
2
1%
07:00
10°
Voelt als: 9.2°
1016.2 hPa 19.9 mm 6.4°
2
1%
10:00
15°
1016.3 hPa 19.9 mm 7.0°
3
1%
13:00
18°
1015.4 hPa 39.9 mm 8.1°
4
1%
19:00
18°
1014.3 hPa 40.0 mm 7.9°
3
1%
 05:34     20:56    Daglengte: 15:22 Dinsdag 03 Aug
01:00
11°
1014.9 hPa 40.0 mm 7.2°
2
1%
07:00
12°
1012.7 hPa 40.0 mm 9.1°
4
1%
13:00
18°
1009.5 hPa 43.4 mm 14.4°
8
1%
19:00
18°
1008.0 hPa 47.3 mm 13.6°
6
1%
 05:35     20:54    Daglengte: 15:19 Woensdag 04 Aug
01:00
14°
1007.0 hPa 48.7 mm 12.6°
6
1%
07:00
13°
1006.3 hPa 49.8 mm 10.8°
5
0%
13:00
19°
1006.5 hPa 49.9 mm 8.0°
7
1%
19:00
18°
1006.9 hPa 49.9 mm 10.0°
6
1%
 05:37     20:53    Daglengte: 15:16 Donderdag 05 Aug
01:00
12°
1007.0 hPa 50.0 mm 10.7°
4
0%
07:00
13°
1005.3 hPa 50.2 mm 11.8°
4
1%
13:00
19°
1011.7 hPa 0.8 mm 10.4°
3
74%
19:00
18°
1010.7 hPa 1.3 mm 10.7°
3
76%
 05:39     20:51    Daglengte: 15:12 Vrijdag 06 Aug
01:00
13°
1011.5 hPa 0.8 mm 10.2°
2
55%
07:00
12°
1011.9 hPa 0.8 mm 10.2°
3
53%
13:00
18°
1012.5 hPa 0.6 mm 9.9°
4
57%
19:00
18°
1012.4 hPa 0.8 mm 10.3°
3
71%
 05:40     20:49    Daglengte: 15:09 Zaterdag 07 Aug
01:00
13°
1013.4 hPa 0.5 mm 9.9°
2
60%
07:00
13°
1013.1 hPa 0.4 mm 9.8°
2
60%
13:00
18°
1012.9 hPa 0.7 mm 10.2°
3
65%
19:00
18°
1012.2 hPa 0.5 mm 10.7°
3
75%
 05:42     20:47    Daglengte: 15:05 Zondag 08 Aug
01:00
13°
1013.1 hPa 0.2 mm 10.0°
2
65%
07:00
12°
1012.8 hPa 0.3 mm 9.9°
2
60%
13:00
19°
1012.8 hPa 0.5 mm 9.9°
4
59%
19:00
18°
1012.7 hPa 0.7 mm 10.1°
4
65%
 05:44     20:45    Daglengte: 15:01 Maandag 09 Aug
01:00
13°
1014.4 hPa 0.2 mm 9.6°
3
51%
07:00
12°
1014.6 hPa 0.2 mm 9.7°
2
46%
13:00
20°
1014.8 hPa 0.4 mm 9.8°
4
52%
19:00
19°
1014.9 hPa 0.7 mm 10.1°
3
57%
 05:45     20:43    Daglengte: 14:58 Dinsdag 10 Aug
01:00
14°
1016.2 hPa 0.5 mm 9.8°
2
57%
07:00
13°
1016.1 hPa 0.1 mm 9.8°
2
56%
13:00
20°
1016.0 hPa 0.8 mm 10.2°
2
66%
  CAPE Lifted Index Hail Supercell Tornado SRH 3km CL BTM PRES CL TOP PRES Swiss DWD icon SMHI TS
 05:21     21:10    Daglengte: 15:49 Vandaag
14:00 47 J/kg -0.2 K 0 % 0 % 0 % 0 m²/s² 0 0 3.58 2
15:00 153 J/kg -1.1 K 0 % 0 % 0 % 0 m²/s² 0 0 2.65 2
16:00 248 J/kg -1.8 K 0 % 0 % 0 % 0 m²/s² 0 0 1.77 3
17:00 334 J/kg -2.1 K 0 % 0 % 0 % 0 m²/s² 0 0 0.84 2
18:00 326 J/kg -2.0 K 0 % 0 % 0 % 0 m²/s² 0 0 1.96 2
19:00 407 J/kg -2.3 K 0 % 0 % 0 % 0 m²/s² 0 0 2.08 3
20:00 475 J/kg -2.8 K 0 % 0 % 0 % 0 m²/s² 0 0 1.04 3
21:00 405 J/kg -2.8 K 0 % 0 % 0 % 0 m²/s² 0 0 -0.4 3
22:00 197 J/kg -2.2 K 0 % 0 % 0 % 0 m²/s² 0 0 -1.06 3
23:00 63 J/kg -1.9 K 0 % 0 % 0 % 0 m²/s² 0 0 -0.55 3
 05:23     21:08    Daglengte: 15:45 Morgen
00:00 0 J/kg -0.9 K 0 % 0 % 0 % 0 m²/s² 0 0 0.72 3
01:00 0 J/kg -0.9 K 0 % 0 % 0 % 0 m²/s² 0 0 0.6 3
02:00 0 J/kg -1.0 K 0 % 0 % 0 % 0 m²/s² 0 0 0.5 3
03:00 0 J/kg -0.2 K 0 % 0 % 0 % 0 m²/s² 0 0 1.42 3
04:00 0 J/kg 0.8 K 0 % 0 % 0 % 0 m²/s² 0 0 2.09 3
05:00 0 J/kg 0.9 K 0 % 0 % 0 % 0 m²/s² 0 0 1.92 3
06:00 0 J/kg 0.4 K 0 % 0 % 0 % 0 m²/s² 0 0 1.03 3
07:00 88 J/kg -0.1 K 0 % 0 % 0 % 0 m²/s² 0 0 0.38 3
08:00 203 J/kg -0.6 K 0 % 0 % 0 % 0 m²/s² 0 0 -0.36 3
09:00 348 J/kg -1.5 K 0 % 0 % 0 % 0 m²/s² 0 0 -1.08 3
10:00 417 J/kg -1.7 K 0 % 0 % 0 % 0 m²/s² 0 0 -1.1 61
11:00 449 J/kg -2.0 K 0 % 0 % 0 % 0 m²/s² 0 0 -1.22 80
12:00 561 J/kg -2.4 K 0 % 0 % 0 % 0 m²/s² 0 0 -1.62 80
13:00 594 J/kg -2.5 K 0 % 0 % 0 % 0 m²/s² 0 0 -1.75 3
14:00 402 J/kg -1.7 K 0 % 0 % 0 % 0 m²/s² 0 0 -0.92 3
15:00 335 J/kg -1.4 K 0 % 0 % 0 % 0 m²/s² 0 0 -0.62 3
16:00 497 J/kg -2.1 K 0 % 0 % 0 % 0 m²/s² 0 0 -1.44 3
17:00 474 J/kg -1.8 K 0 % 0 % 0 % 0 m²/s² 0 0 -1.32 3
18:00 481 J/kg -1.8 K 0 % 0 % 0 % 0 m²/s² 0 0 -1.5 3
19:00 282 J/kg -1.1 K 0 % 0 % 0 % 0 m²/s² 0 0 -0.71 3
20:00 178 J/kg -0.8 K 0 % 0 % 0 % 0 m²/s² 0 0 -0.53 80
21:00 104 J/kg -0.1 K 0 % 0 % 0 % 0 m²/s² 0 0 0.23 80
22:00 63 J/kg 0.6 K 0 % 0 % 0 % 0 m²/s² 0 0 1.11 3
23:00 0 J/kg 1.5 K 0 % 0 % 0 % 0 m²/s² 0 0 1.89 80
 05:24     21:06    Daglengte: 15:42 Woensdag 28 Jul
00:00 0 J/kg 1.2 K 0 % 0 % 0 % 0 m²/s² 0 0 1.38 61
01:00 0 J/kg 0.2 K 0 % 0 % 0 % 0 m²/s² 0 0 0.44 3
02:00 1 J/kg 0.7 K 0 % 0 % 0 % 0 m²/s² 0 0 0.94 2
03:00 0 J/kg 1.8 K 0 % 0 % 0 % 0 m²/s² 0 0 2.13 2
04:00 0 J/kg 2.6 K 0 % 0 % 0 % 0 m²/s² 0 0 2.93 2
05:00 0 J/kg 3.2 K 0 % 0 % 0 % 0 m²/s² 0 0 4.31 2
06:00 0 J/kg 3.3 K 0 % 0 % 0 % 0 m²/s² 0 0 4.56 2
07:00 0 J/kg 2.6 K 0 % 0 % 0 % 0 m²/s² 0 0 4.19 2
08:00 43 J/kg 1.0 K 0 % 0 % 0 % 0 m²/s² 0 0 1.96 2
09:00 94 J/kg 0.3 K 0 % 0 % 0 % 0 m²/s² 0 0 0.72 2
10:00 432 J/kg -1.8 K 0 % 0 % 0 % 0 m²/s² 0 0 0.3 2
11:00 564 J/kg -2.4 K 0 % 0 % 0 % 0 m²/s² 0 0 -0.54 3
12:00 469 J/kg -2.3 K 0 % 0 % 0 % 0 m²/s² 0 0 -0.44 3
13:00 415 J/kg -2.1 K 0 % 0 % 0 % 0 m²/s² 0 0 -1.56 3
14:00 8 J/kg 0.6 K 0 % 0 % 0 % 0 m²/s² 0 0 1.05 80
15:00 21 J/kg 0.3 K 0 % 0 % 0 % 0 m²/s² 0 0 2.46 95
16:00 499 J/kg -2.6 K 0 % 0 % 0 % 0 m²/s² 0 0 0.61 80
17:00 611 J/kg -3.3 K 0 % 0 % 0 % 0 m²/s² 0 0 -2.76 80
18:00 448 J/kg -2.9 K 0 % 0 % 0 % 0 m²/s² 0 0 -0.02 80
19:00 386 J/kg -2.4 K 0 % 0 % 0 % 0 m²/s² 0 0 -0.06 2
20:00 357 J/kg -2.3 K 0 % 0 % 0 % 0 m²/s² 0 0 -0.71 1
21:00 413 J/kg -2.4 K 0 % 0 % 0 % 0 m²/s² 0 0 -1.77 1
22:00 503 J/kg -2.8 K 0 % 0 % 0 % 0 m²/s² 0 0 -1.27 1
23:00 399 J/kg -2.2 K 0 % 0 % 0 % 0 m²/s² 0 0 0.71 0
 05:26     21:05    Daglengte: 15:39 Donderdag 29 Jul
00:00 188 J/kg -0.8 K 0 % 0 % 0 % 0 m²/s² 0 0 -0.47 0
01:00 27 J/kg 0.2 K 0 % 0 % 0 % 0 m²/s² 0 0 0.95 0
02:00 87 J/kg -1.0 K 0 % 0 % 0 % 0 m²/s² 0 0 0.71 1
03:00 68 J/kg -1.6 K 0 % 0 % 0 % 0 m²/s² 0 0 -0.43 1
04:00 213 J/kg -1.9 K 0 % 0 % 0 % 0 m²/s² 0 0 -1.12 1
05:00 130 J/kg -0.7 K 0 % 0 % 0 % 0 m²/s² 0 0 2.18 1
06:00 14 J/kg 0.0 K 0 % 0 % 0 % 0 m²/s² 0 0 3.24 1
07:00 15 J/kg 0.8 K 0 % 0 % 0 % 0 m²/s² 0 0 3.71 1
08:00 10 J/kg 1.1 K 0 % 0 % 0 % 0 m²/s² 0 0 3.23 2
09:00 34 J/kg 0.8 K 0 % 0 % 0 % 0 m²/s² 0 0 2.99 1
10:00 47 J/kg 0.7 K 0 % 0 % 0 % 0 m²/s² 0 0 3.13 1
11:00 95 J/kg 0.8 K 0 % 0 % 0 % 0 m²/s² 0 0 2.87 2
12:00 83 J/kg 0.8 K 0 % 0 % 0 % 0 m²/s² 0 0 1.34 2
13:00 15 J/kg 2.0 K 0 % 0 % 0 % 0 m²/s² 0 0 2.51 2
Temp Baro Wind Neerslag
  EWN Forecast EWN WRFDA DWD ICON FMI HIRLAM MET Norway GFS
 05:21     21:10    Daglengte: 15:49 Vandaag
16:00 24.4° 1008.1 hPa 1.9 m/s 0.0 mm 24.2° 1007.1 hPa 2.8 m/s 0.0 mm 25.0° 1008.5 hPa 1.9 m/s -2.0 mm 24.0° 1008.2 hPa 2.7 m/s 0.0 mm 21.2° 1008.5 hPa 1.9 m/s
19:00 23.5° 1007.5 hPa 2.8 m/s 0.0 mm 23.2° 1006.2 hPa 3.7 m/s 0.7 mm 22.9° 1007.7 hPa 3.5 m/s 0.1 mm 23.3° 1007.7 hPa 2.8 m/s 0.0 mm 22.4° 1007.4 hPa 1.5 m/s
22:00 20.4° 1008.2 hPa 2.1 m/s 0.0 mm 20.3° 1007.5 hPa 2.6 m/s 0.8 mm 19.9° 1008.5 hPa 2.1 m/s 0.0 mm 20.3° 1008.4 hPa 0.8 m/s 0.0 mm 16.8° 1008.0 hPa 1.6 m/s
 05:23     21:08    Daglengte: 15:45 Morgen
01:00 17.5° 1008.2 hPa 2.0 m/s 0.0 mm 15.9° 1007.8 hPa 3.5 m/s 0.8 mm 17.7° 1008.6 hPa 1.0 m/s 0.0 mm 18.0° 1008.0 hPa 1.8 m/s 0.0 mm 15.3° 1008.1 hPa 1.8 m/s
04:00 16.5° 1007.7 hPa 1.9 m/s 0.0 mm 15.0° 1007.0 hPa 2.3 m/s 0.8 mm 16.7° 1007.8 hPa 1.0 m/s 0.0 mm 16.6° 1007.3 hPa 2.8 m/s 0.0 mm 14.1° 1007.4 hPa 1.5 m/s
07:00 16.2° 1007.4 hPa 1.8 m/s 0.0 mm 15.5° 1007.0 hPa 2.7 m/s 0.8 mm 16.4° 1008.0 hPa 1.3 m/s 0.0 mm 15.8° 1007.2 hPa 1.9 m/s 0.0 mm 14.9° 1007.4 hPa 1.1 m/s
10:00 17.9° 1007.4 hPa 2.2 m/s 0.0 mm 18.9° 1006.6 hPa 2.2 m/s 0.8 mm 17.0° 1007.7 hPa 2.4 m/s 0.2 mm 19.2° 1007.2 hPa 1.1 m/s 0.0 mm 16.6° 1007.2 hPa 3.7 m/s
13:00 19.8° 1006.7 hPa 1.9 m/s 0.0 mm 21.2° 1006.1 hPa 3.4 m/s 0.9 mm 18.2° 1007.4 hPa 1.6 m/s 1.0 mm 22.4° 1006.3 hPa 1.5 m/s 0.0 mm 16.4° 1006.8 hPa 2.6 m/s
16:00 20.3° 1005.5 hPa 2.6 m/s 0.0 mm 19.6° 1004.9 hPa 3.4 m/s 2.5 mm 20.3° 1005.8 hPa 1.4 m/s 0.0 mm 22.7° 1005.5 hPa 4.5 m/s 0.0 mm 17.7° 1005.7 hPa 0.9 m/s
19:00 18.7° 1005.2 hPa 2.5 m/s 0.0 mm 17.4° 1004.7 hPa 3.5 m/s 10.4 mm 18.9° 1005.3 hPa 2.0 m/s 0.2 mm 19.4° 1005.8 hPa 4.5 m/s 0.0 mm 17.3° 1004.7 hPa 2.3 m/s
22:00 16.7° 1005.8 hPa 2.5 m/s 1.1 mm 16.1° 1005.5 hPa 3.2 m/s 14.2 mm 16.8° 1005.6 hPa 1.4 m/s 1.3 mm 17.1° 1007.5 hPa 5.2 m/s 0.0 mm 14.4° 1005.5 hPa 2.6 m/s
 05:24     21:06    Daglengte: 15:42 Woensdag 28 Jul
01:00 15.1° 1005.5 hPa 4.4 m/s 3.5 mm 13.9° 1005.2 hPa 3.5 m/s 14.2 mm 15.7° 1004.9 hPa 2.4 m/s 1.2 mm 15.3° 1008.0 hPa 5.6 m/s 0.0 mm 13.8° 1005.0 hPa 2.0 m/s
04:00 14.1° 1005.1 hPa 3.9 m/s 0.0 mm 13.1° 1004.6 hPa 4.1 m/s 14.2 mm 14.2° 1004.6 hPa 3.1 m/s 0.0 mm 13.6° 1008.5 hPa 5.4 m/s 0.0 mm 11.9° 1004.6 hPa 3.6 m/s
07:00 13.6° 1005.6 hPa 4.4 m/s 0.0 mm 12.9° 1004.6 hPa 3.2 m/s 14.2 mm 13.6° 1005.1 hPa 3.3 m/s 0.0 mm 13.0° 1009.8 hPa 5.7 m/s 0.0 mm 12.5° 1005.1 hPa 4.4 m/s
10:00 16.2° 1004.9 hPa 4.2 m/s 1.4 mm 16.3° 1004.2 hPa 3.5 m/s 17.8 mm 16.4° 1005.5 hPa 3.9 m/s 0.2 mm 16.9° 1004.6 hPa 5.8 m/s
13:00 17.2° 1004.1 hPa 5.1 m/s 6.8 mm 17.1° 1003.2 hPa 5.5 m/s 22.8 mm 18.6° 1004.6 hPa 4.4 m/s 0.4 mm 17.1° 1003.5 hPa 6.7 m/s
16:00 17.3° 1003.5 hPa 5.7 m/s 9.7 mm 17.6° 1002.2 hPa 6.0 m/s 39.9 mm 17.7° 1004.8 hPa 4.9 m/s 1.7 mm 16.4° 1002.7 hPa 8.5 m/s
19:00 16.3° 1003.2 hPa 5.7 m/s 11.7 mm 17.2° 1002.2 hPa 5.8 m/s 44.5 mm 16.6° 1005.0 hPa 4.6 m/s 1.1 mm 14.7° 1002.9 hPa 7.4 m/s
22:00 13.5° 1004.1 hPa 3.8 m/s 0.0 mm 13.9° 1003.1 hPa 2.9 m/s 47.5 mm 13.6° 1006.5 hPa 3.5 m/s 0.0 mm 11.8° 1003.9 hPa 5.8 m/s
 05:26     21:05    Daglengte: 15:39 Donderdag 29 Jul
01:00 12.0° 1004.3 hPa 4.9 m/s 0.0 mm 12.3° 1002.0 hPa 5.5 m/s 53.5 mm 12.0° 1006.8 hPa 3.4 m/s 0.0 mm 10.2° 1004.4 hPa 4.6 m/s
04:00 11.5° 1004.6 hPa 4.6 m/s 0.0 mm 11.5° 1001.9 hPa 4.8 m/s 58.6 mm 11.3° 1006.9 hPa 3.1 m/s 0.0 mm 9.9° 1005.5 hPa 5.3 m/s
07:00 12.1° 1005.3 hPa 5.3 m/s 0.0 mm 12.7° 1002.9 hPa 5.5 m/s 58.8 mm 11.6° 1007.8 hPa 3.1 m/s 0.0 mm 12.4° 1005.9 hPa 7.3 m/s
10:00 15.8° 1007.5 hPa 5.6 m/s 0.0 mm 15.0° 1004.3 hPa 8.1 m/s 58.9 mm 16.0° 1008.3 hPa 5.0 m/s 0.0 mm 15.6° 1007.2 hPa 8.3 m/s
13:00 18.5° 1007.6 hPa 5.9 m/s 0.0 mm 15.5° 1006.5 hPa 9.3 m/s 59.2 mm 19.2° 1007.9 hPa 5.0 m/s 0.0 mm 15.9° 1008.5 hPa 8.5 m/s
16:00 17.4° 1008.7 hPa 8.1 m/s 9.5 mm 17.4° 1008.7 hPa 8.1 m/s 9.5 mm
19:00 15.9° 1009.1 hPa 6.6 m/s 9.5 mm 15.9° 1009.1 hPa 6.6 m/s 9.5 mm
22:00 13.8° 1009.6 hPa 4.5 m/s 9.5 mm 13.8° 1009.6 hPa 4.5 m/s 9.5 mm
 05:28     21:03    Daglengte: 15:35 Vrijdag 30 Jul
01:00 11.1° 1009.9 hPa 2.8 m/s 9.5 mm 11.1° 1009.9 hPa 2.8 m/s 9.5 mm
04:00 10.7° 1009.0 hPa 1.7 m/s 9.5 mm 10.7° 1009.0 hPa 1.7 m/s 9.5 mm
07:00 11.7° 1008.7 hPa 1.4 m/s 9.5 mm 11.7° 1008.7 hPa 1.4 m/s 9.5 mm
10:00 13.1° 1007.8 hPa 1.3 m/s 9.7 mm 13.1° 1007.8 hPa 1.3 m/s 9.7 mm
13:00 15.6° 1005.7 hPa 4.0 m/s 10.0 mm 15.6° 1005.7 hPa 4.0 m/s 10.0 mm
16:00 14.6° 1004.1 hPa 4.9 m/s 13.6 mm 14.6° 1004.1 hPa 4.9 m/s 13.5 mm
19:00 15.3° 1002.4 hPa 3.9 m/s 15.6 mm 15.4° 1002.4 hPa 3.9 m/s 15.6 mm
22:00 11.8° 1003.0 hPa 1.7 m/s 16.0 mm 11.8° 1003.0 hPa 1.7 m/s 16.0 mm
 05:29     21:02    Daglengte: 15:33 Zaterdag 31 Jul
01:00 10.6° 1003.5 hPa 2.1 m/s 16.0 mm 10.6° 1003.5 hPa 2.1 m/s 16.0 mm
04:00 11.6° 1003.6 hPa 3.5 m/s 16.1 mm 11.6° 1003.6 hPa 3.5 m/s 16.1 mm
07:00 13.0° 1004.8 hPa 5.2 m/s 17.5 mm 13.0° 1004.8 hPa 5.2 m/s 17.5 mm
10:00 15.8° 1005.9 hPa 6.6 m/s 18.3 mm 15.8° 1005.9 hPa 6.6 m/s 18.3 mm
13:00 17.1° 1006.8 hPa 5.6 m/s 18.8 mm 17.1° 1006.8 hPa 5.6 m/s 18.8 mm
16:00 16.5° 1007.6 hPa 5.5 m/s 18.9 mm 16.5° 1007.6 hPa 5.5 m/s 18.9 mm
19:00 15.4° 1008.2 hPa 4.5 m/s 18.9 mm 15.4° 1008.2 hPa 4.5 m/s 18.9 mm
22:00 11.1° 1009.5 hPa 3.2 m/s 18.9 mm 11.1° 1009.5 hPa 3.2 m/s 18.9 mm
 05:31     21:00    Daglengte: 15:29 Zondag 01 Aug
01:00 9.8° 1009.7 hPa 4.1 m/s 18.9 mm 9.8° 1009.7 hPa 4.1 m/s 18.9 mm
04:00 9.6° 1009.1 hPa 4.0 m/s 18.9 mm 9.6° 1009.1 hPa 4.0 m/s 18.9 mm
07:00 12.2° 1009.4 hPa 6.0 m/s 18.9 mm 12.2° 1009.4 hPa 6.0 m/s 18.9 mm
10:00 13.9° 1010.4 hPa 5.6 m/s 19.0 mm 13.9° 1010.4 hPa 5.6 m/s 19.0 mm
13:00 15.4° 1011.3 hPa 5.0 m/s 19.6 mm 15.4° 1011.3 hPa 5.0 m/s 19.6 mm
16:00 16.0° 1012.3 hPa 5.3 m/s 19.8 mm 16.0° 1012.3 hPa 5.3 m/s 19.8 mm
19:00 15.1° 1013.2 hPa 4.0 m/s 19.9 mm 15.1° 1013.2 hPa 4.0 m/s 19.9 mm
22:00 13.3° 1014.5 hPa 3.1 m/s 19.9 mm 13.3° 1014.5 hPa 3.2 m/s 19.9 mm
 05:32     20:58    Daglengte: 15:26 Maandag 02 Aug
01:00 11.0° 1015.4 hPa 2.9 m/s 19.9 mm 11.0° 1015.4 hPa 2.9 m/s 19.9 mm
04:00 8.3° 1015.7 hPa 2.3 m/s 19.9 mm 8.3° 1015.7 hPa 2.3 m/s 19.9 mm
07:00 9.9° 1016.2 hPa 1.8 m/s 19.9 mm 9.9° 1016.2 hPa 1.8 m/s 19.9 mm
10:00 14.9° 1016.3 hPa 2.9 m/s 19.9 mm 14.9° 1016.3 hPa 2.9 m/s 19.9 mm
13:00 17.8° 1015.4 hPa 3.5 m/s 20.0 mm 17.8° 1015.4 hPa 3.5 m/s 20.0 mm
19:00 17.9° 1014.3 hPa 3.3 m/s 20.0 mm 17.9° 1014.3 hPa 3.3 m/s 20.0 mm
 05:34     20:56    Daglengte: 15:22 Dinsdag 03 Aug
01:00 11.4° 1014.9 hPa 1.6 m/s 20.0 mm 11.4° 1014.9 hPa 1.6 m/s 20.0 mm
07:00 12.1° 1012.7 hPa 3.7 m/s 20.0 mm 12.1° 1012.7 hPa 3.7 m/s 20.0 mm
13:00 18.4° 1009.5 hPa 7.6 m/s 22.0 mm 18.4° 1009.5 hPa 7.6 m/s 22.0 mm
19:00 17.8° 1008.0 hPa 6.3 m/s 23.9 mm 17.8° 1008.0 hPa 6.3 m/s 23.9 mm
 05:35     20:54    Daglengte: 15:19 Woensdag 04 Aug
01:00 14.4° 1007.0 hPa 6.3 m/s 24.6 mm 14.4° 1007.0 hPa 6.3 m/s 24.6 mm
07:00 12.6° 1006.3 hPa 5.5 m/s 24.9 mm 12.6° 1006.3 hPa 5.5 m/s 24.9 mm
13:00 19.0° 1006.5 hPa 7.1 m/s 24.9 mm 19.0° 1006.5 hPa 7.1 m/s 24.9 mm
19:00 17.5° 1006.9 hPa 5.9 m/s 25.0 mm 17.5° 1006.9 hPa 5.9 m/s 25.0 mm
 05:37     20:53    Daglengte: 15:16 Donderdag 05 Aug
01:00 12.0° 1007.0 hPa 3.9 m/s 25.0 mm 12.0° 1007.0 hPa 3.9 m/s 25.0 mm
07:00 13.0° 1005.3 hPa 3.7 m/s 25.2 mm 13.0° 1005.3 hPa 3.7 m/s 25.2 mm
13:00 18.5° 1011.7 hPa 2.6 m/s 0.8 mm
19:00 17.7° 1010.7 hPa 2.6 m/s 1.3 mm
 05:39     20:51    Daglengte: 15:12 Vrijdag 06 Aug
01:00 12.9° 1011.5 hPa 2.1 m/s 0.8 mm
07:00 12.5° 1011.9 hPa 2.7 m/s 0.8 mm
13:00 18.5° 1012.5 hPa 4.2 m/s 0.6 mm
19:00 17.9° 1012.4 hPa 3.5 m/s 0.8 mm
 05:40     20:49    Daglengte: 15:09 Zaterdag 07 Aug
01:00 12.8° 1013.4 hPa 1.9 m/s 0.5 mm
07:00 12.6° 1013.1 hPa 2.3 m/s 0.4 mm
13:00 18.3° 1012.9 hPa 2.9 m/s 0.7 mm
19:00 17.5° 1012.2 hPa 3.0 m/s 0.5 mm
 05:42     20:47    Daglengte: 15:05 Zondag 08 Aug
01:00 12.8° 1013.1 hPa 2.0 m/s 0.2 mm
07:00 12.5° 1012.8 hPa 2.2 m/s 0.3 mm
13:00 18.8° 1012.8 hPa 3.6 m/s 0.5 mm
19:00 17.9° 1012.7 hPa 3.6 m/s 0.7 mm
 05:44     20:45    Daglengte: 15:01 Maandag 09 Aug
01:00 13.0° 1014.4 hPa 2.5 m/s 0.2 mm
07:00 12.5° 1014.6 hPa 2.5 m/s 0.2 mm
13:00 19.6° 1014.8 hPa 3.5 m/s 0.4 mm
19:00 18.8° 1014.9 hPa 3.4 m/s 0.7 mm
 05:45     20:43    Daglengte: 14:58 Dinsdag 10 Aug
01:00 13.6° 1016.2 hPa 2.1 m/s 0.5 mm
07:00 12.9° 1016.1 hPa 1.7 m/s 0.1 mm
13:00 19.7° 1016.0 hPa 2.2 m/s 0.8 mm
FMI Hirlam - 7.5 km EWN WRFDA - 12 km DWD ICON - 7 km GFS - 25 km Basiskaart






























































Updatetijd (Europe/Amsterdam) Resolutie Lengte Stap
FMI Hirlam 14:00, 20:00, 02:00, 08:00 7.5 km 49h 1h
EWN WRFDA 10:30, 16:30, 22:30, 04:30 12 km 73h 1h
DWD ICON 11:45, 17:45, 23:45, 05:45 7 km 75h 1h
GFS 14:15, 20:15, 02:15, 08:15 25 km 237h 3h
30+ mm
25-30 mm
20-25 mm
15-20 mm
10-15 mm
6-10 mm
4-6 mm
2-4 mm
1-2 mm
0.5-1 mm
0.2-0.5 mm
0.1-0.2 mm
30+ mm
25-30 mm
20-25 mm
15-20 mm
10-15 mm
6-10 mm
4-6 mm
2-4 mm
1-2 mm
0.5-1 mm
0.2-0.5 mm
0.1-0.2 mm
Sneeuwval
Natte sneeuw
Hagel
Vorst
30+ mm
25-30 mm
20-25 mm
15-20 mm
10-15 mm
6-10 mm
4-6 mm
2-4 mm
1-2 mm
0.5-1 mm
0.2-0.5 mm
0.1-0.2 mm
Sneeuwval
Natte sneeuw
Hagel
Vorst
Onweer
50 mm
40 mm
30 mm
26 mm
22 mm
18 mm
14 mm
10 mm
9 mm
8 mm
7 mm
6 mm
5 mm
4.5 mm
4 mm
3.5 mm
3 mm
2.5 mm
2 mm
1.5 mm
1 mm
0.8 mm
0.6 mm
0.4 mm
0.2 mm
0.05 mm
35°
30°
25°
20°
15°
10°
-5°
-10°
-15°
-20°
-25°
-30°
-35°
33> m/s
29 m/s
25 m/s
21 m/s
17 m/s
14 m/s
11 m/s
8 m/s
5 m/s
3 m/s
0 m/s
2600 J/kg
2400 J/kg
2200 J/kg
2000 J/kg
1800 J/kg
1600 J/kg
1400 J/kg
1200 J/kg
1000 J/kg
800 J/kg
600 J/kg
400 J/kg